Tracking 35048 objects as of 19-Aug-2026
HD Live streaming from Space Station
objects crossing your sky now

OBJECT K

Track OBJECT K now!
10-day predictions
OBJECT K is classified as:


NORAD ID: 68989
Int'l Code: 2026-100K
Launch date: May 3, 2026
Source: (TBD)
Launch site: AIR FORCE WESTERN TEST RANGE (AFWTR)

Uplink (MHz):
Downlink (MHz): 2261.950
Beacon (MHz):
Mode: 38k4_FSK FM
Call sign:
Status: Active

Your satellite tracking list
Your tracking list is empty




NASA's NSSDC Master Catalog

Two Line Element Set (TLE):
1 68989U 26100K   26230.71705859  .00001485  00000-0  15550-3 0  9991
2 68989  97.7306 126.8782 0004625 297.2378  62.8369 14.91063313 16016
Source of the keplerian elements: AFSPC